Location: Bełchatów
(51.3638°N, 19.3624°E)
Time: 22:51:41
(UTC+01:00)

ISS - Visible Passes

Search period start: 23 January 2019 00:00
Search period end: 02 February 2019 00:00
Orbit: 404 x 410 km, 51.6° (Epoch: 24 January)

Date Brightness Start Highest point End Pass type
(mag) Time Alt. Az. Time Alt. Az. Time Alt. Az.
23 Jan -1.5 18:40:00 10° SSW 18:41:05 17° S 18:41:05 17° S visible
24 Jan -1.9 17:49:24 10° S 17:51:36 17° SE 17:52:04 16° SE visible
24 Jan -0.7 19:24:24 10° WSW 19:24:47 13° WSW 19:24:47 13° WSW visible
25 Jan -1.3 16:59:44 10° SSE 17:00:29 11° SE 17:01:14 10° ESE visible
25 Jan -2.7 18:33:12 10° SW 18:35:41 36° S 18:35:41 36° S visible
26 Jan -2.6 17:42:10 10° SSW 17:45:06 29° SSE 17:46:31 21° ESE visible
26 Jan -1.1 19:18:04 10° WSW 19:19:14 20° WSW 19:19:14 20° WSW visible
27 Jan -3.8 18:26:44 10° WSW 18:30:00 67° SSE 18:30:00 67° SSE visible
28 Jan -3.3 17:35:27 10° SW 17:38:39 49° SSE 17:40:43 20° E visible
28 Jan -1.6 19:11:49 10° W 19:13:26 26° W 19:13:26 26° W visible
29 Jan -3.9 18:20:23 10° W 18:23:41 89° SSW 18:24:07 66° E visible
30 Jan -3.7 17:28:58 10° WSW 17:32:16 75° SSE 17:34:47 16° E visible
30 Jan -2.1 19:05:30 10° W 19:07:30 33° W 19:07:30 33° W visible
31 Jan -3.9 18:14:03 10° W 18:17:22 83° N 18:18:09 49° E visible
31 Jan -0.3 19:50:37 10° W 19:50:52 12° W 19:50:52 12° W visible
01 Feb -3.8 17:22:34 10° W 17:25:53 87° NNW 17:28:49 13° E visible
01 Feb -2.7 18:59:09 10° W 19:01:32 44° W 19:01:32 44° W visible
